Wind_Speed
11 11 12 12 12 12 11 11 10 10 9 8 7 6 6 5 4 3 2 2 3 3 5 7 8 9 10 10 11 13 15 17 18 19 19 20 21 21 22 24 25 27 28 27 26 25 25 25 25 26 26 25 23 20 17 15 14 12 12 11 11 10 9 9 9 9 11 14 15 11 11 10 9 10 8 8 8 4 4 5 6 6 8 9 10 11 9 8
9 10 11 12 12 12 12 12 12 11 10 10 9 8 8 7 6 5 4 3 2 2 2 4 6 8 8 8 10 10 13 14 16 17 18 18 19 18 17 17 18 21 24 26 27 26 25 25 25 24 24 23 21 20 17 14 12 11 10 11 13 14 14 13 13 12 10 12 15 13 11 10 8 8 6 7 7 5 3 4 6 7 8 9 10 11 9 9
7 9 10 11 12 12 13 13 13 13 12 11 11 10 9 9 8 7 6 5 4 3 2 2 4 6 7 8 8 8 9 11 13 15 15 15 17 18 16 14 13 15 18 23 26 26 24 24 26 25 22 21 18 17 16 13 11 11 10 12 14 13 15 13 12 13 11 11 14 13 11 9 7 7 8 7 6 5 3 3 4 6 6 6 7 8 8 9
4 6 8 9 10 11 12 13 13 13 13 13 13 12 11 11 10 10 9 7 6 5 4 2 2 4 6 7 7 5 6 8 11 13 14 14 14 15 16 14 12 12 14 21 25 24 22 20 23 24 22 21 18 15 13 10 8 11 13 12 11 11 12 11 11 13 11 11 13 13 12 9 6 6 8 8 8 6 2 2 3 4 4 4 5 6 6 7
2 3 5 6 8 10 11 12 13 13 14 14 14 14 13 12 12 11 11 10 9 8 7 5 3 3 4 6 7 6 6 6 8 11 12 12 12 12 14 14 13 12 13 19 23 23 22 18 16 17 18 19 17 11 9 9 9 14 15 11 8 8 9 9 9 10 10 10 10 11 11 8 5 4 6 7 10 8 3 2 1 2 3 4 4 4 5 6
2 2 3 4 5 7 9 11 12 13 14 14 15 15 15 14 14 13 13 12 11 10 9 8 6 4 4 5 6 5 5 4 4 7 8 10 10 10 11 12 14 14 14 19 20 20 22 21 14 10 10 12 15 12 13 12 12 13 12 9 7 5 6 7 6 7 6 6 6 7 8 6 3 3 4 6 9 9 6 4 2 1 2 4 4 4 4 4
2 2 3 3 3 5 7 8 10 12 13 14 15 16 16 16 15 15 14 14 13 12 12 10 9 7 6 5 5 4 3 3 2 4 6 9 9 8 9 10 11 12 13 16 17 17 18 19 17 12 5 5 12 11 13 12 12 10 7 6 7 6 7 6 6 5 5 4 2 2 4 3 4 5 4 5 7 8 7 4 3 1 2 4 3 4 4 5
2 2 3 3 3 4 4 5 7 9 11 13 14 15 16 17 17 16 16 15 15 14 14 13 12 10 9 7 6 5 2 0 2 2 5 8 6 7 7 8 9 10 9 11 13 12 11 14 16 14 8 4 10 6 9 12 10 7 4 4 5 7 8 7 8 7 8 9 6 3 1 1 4 5 4 4 5 7 7 4 3 2 2 4 4 4 5 5
3 3 3 3 4 4 4 3 4 6 9 11 13 14 15 17 17 18 18 17 17 16 15 14 14 13 12 10 9 7 6 4 3 1 4 5 4 5 6 7 7 9 8 7 8 7 6 12 14 10 9 8 7 1 11 12 6 5 5 3 3 4 6 6 7 5 8 12 9 6 5 4 4 5 4 3 4 6 6 3 3 3 3 3 4 5 5 5
4 4 4 4 4 4 4 3 3 3 5 8 10 12 14 16 17 18 19 19 19 18 17 16 15 15 14 13 12 10 9 7 5 4 3 3 3 4 5 5 6 6 6 6 8 7 4 10 10 5 4 7 6 6 9 7 2 6 7 3 2 2 3 2 3 4 5 11 11 8 6 5 4 4 4 4 4 5 5 3 3 4 4 3 3 4 4 4
5 4 4 4 4 5 4 4 3 2 3 4 7 9 12 14 15 17 18 19 20 20 19 19 17 17 16 16 15 13 12 10 8 7 4 4 4 4 4 5 5 6 4 6 7 6 5 7 7 4 3 7 5 3 4 6 4 5 7 6 4 2 4 4 1 4 3 8 11 9 8 7 4 3 4 5 5 4 4 3 3 4 4 4 3 2 1 3
7 5 4 4 5 5 5 4 3 3 2 2 3 6 8 11 13 14 16 18 19 19 19 19 19 19 18 18 17 16 14 12 12 11 8 7 7 5 5 5 6 7 6 5 5 4 6 5 6 5 3 5 5 4 7 7 6 4 4 9 11 6 6 7 2 3 3 6 10 9 12 12 6 4 4 5 5 4 4 4 3 3 4 5 5 4 3 1
9 7 6 5 5 5 5 5 4 3 3 2 2 3 5 7 9 11 13 15 16 18 18 19 19 19 20 19 17 18 17 16 17 16 13 11 10 10 10 9 8 8 9 7 6 5 7 6 6 4 2 2 5 3 9 8 6 8 5 11 13 10 10 9 6 5 4 5 6 10 15 14 8 4 4 5 4 3 3 3 2 2 2 5 5 5 5 3
10 9 8 6 6 5 5 5 4 4 3 3 3 2 3 4 6 8 10 12 13 15 16 18 18 18 20 18 17 20 20 19 21 19 16 14 13 13 13 13 12 10 11 10 8 7 7 7 6 3 4 3 3 3 11 7 10 11 10 13 16 14 12 9 9 8 7 8 6 9 13 12 9 6 4 4 3 2 2 2 3 1 1 4 5 4 5 4
12 11 9 8 7 6 6 4 4 4 3 3 3 3 3 3 4 6 8 9 11 12 14 16 16 17 18 17 17 20 21 22 22 19 16 15 14 15 16 16 15 14 14 12 9 7 7 7 7 5 5 2 3 7 13 10 13 15 15 17 20 17 12 8 10 11 9 9 10 12 11 10 9 8 6 4 3 1 1 2 3 0 2 2 4 4 4 3
14 13 11 9 8 8 7 5 4 4 4 4 3 3 3 4 4 4 5 7 8 9 11 12 13 15 15 14 15 19 22 21 18 16 15 15 15 15 15 17 17 15 14 12 10 7 5 6 6 5 6 5 3 8 14 13 14 19 20 21 21 18 13 10 11 12 11 10 14 15 13 12 10 8 8 6 4 2 1 2 3 1 2 2 3 3 3 2
15 14 12 11 10 9 8 7 5 5 4 3 3 3 3 3 3 3 4 5 6 8 8 8 8 10 10 9 9 12 16 16 14 14 14 14 15 15 15 15 14 12 12 11 10 7 4 7 8 6 6 6 5 9 15 14 14 19 21 23 23 20 16 13 10 13 15 14 15 17 17 15 11 9 10 8 5 5 3 2 3 2 3 4 4 3 4 4
17 16 14 13 11 11 10 8 7 6 6 4 3 3 3 3 3 4 4 5 7 8 6 7 8 6 6 5 3 1 5 9 9 10 12 13 14 14 14 13 12 11 11 11 11 9 7 9 11 11 11 10 9 12 16 15 14 16 20 22 22 21 20 17 14 14 15 16 16 18 21 18 15 15 14 11 9 7 4 2 3 3 3 4 6 7 5 5
19 17 16 15 14 13 12 10 9 8 6 4 4 4 3 3 4 4 4 5 7 7 6 8 10 11 11 10 8 5 1 4 5 7 8 10 12 13 12 13 13 12 12 13 12 11 10 10 12 15 17 16 13 14 19 20 19 17 15 16 16 18 19 16 15 15 14 15 17 19 21 18 19 22 20 16 15 10 6 6 2 1 3 4 6 9 9 7
20 19 18 17 16 15 14 13 12 10 7 5 4 5 4 4 5 4 4 6 8 8 8 7 11 15 12 11 12 7 2 5 6 7 8 9 12 13 13 14 12 11 13 14 13 11 11 12 14 17 18 17 16 17 21 23 22 18 14 14 12 15 18 15 14 16 17 18 21 21 20 19 21 25 25 22 19 15 12 10 3 1 3 3 3 7 10 10
22 21 20 19 18 17 16 15 14 12 10 7 6 6 5 5 6 5 4 7 9 9 9 6 7 13 10 8 10 5 1 8 10 9 8 7 8 11 13 14 13 12 12 12 12 11 11 14 17 17 15 15 14 14 17 21 23 20 15 13 12 12 16 16 14 13 18 22 24 23 23 23 23 25 27 28 25 19 13 8 4 1 3 3 2 4 7 10
23 23 22 21 20 19 19 18 17 15 13 11 9 8 8 7 7 7 7 7 8 9 10 9 8 9 10 9 6 4 5 10 13 11 9 6 5 7 9 10 12 13 9 8 10 10 11 15 16 15 13 13 15 15 19 22 22 21 18 15 15 16 16 14 13 11 17 24 22 21 25 27 25 24 26 32 31 19 10 7 2 2 5 3 1 2 5 9
23 24 23 22 21 21 20 19 19 18 17 14 12 11 10 9 10 10 10 10 8 9 11 11 11 11 10 10 8 8 10 13 14 11 10 10 6 5 7 7 9 11 7 7 8 8 11 13 11 11 12 14 18 20 21 21 19 19 19 17 18 18 16 16 17 15 10 19 18 16 21 26 27 28 29 34 34 20 12 10 4 6 7 3 1 2 3 7
23 24 24 23 23 22 21 21 21 21 19 16 14 13 13 12 12 12 13 15 13 11 11 12 15 15 11 9 11 13 13 14 14 10 10 11 8 8 10 8 7 10 8 8 9 12 13 9 5 9 11 14 18 18 16 19 20 18 14 14 17 17 15 17 17 16 10 13 19 15 14 16 19 25 28 32 35 26 17 14 10 10 10 5 4 3 3 5
24 24 24 23 23 23 22 22 22 23 21 18 16 15 15 15 14 15 14 17 19 15 13 15 18 17 13 11 13 15 15 16 13 8 9 11 9 11 12 9 8 9 8 8 10 15 15 9 9 13 14 13 16 16 14 17 20 17 12 12 15 14 13 15 15 15 14 9 14 13 10 8 9 16 20 23 32 30 22 19 14 12 12 9 7 5 6 7
23 24 24 23 23 23 23 23 24 24 22 20 18 17 17 16 15 15 14 15 20 20 15 14 15 15 15 16 16 14 15 17 13 8 10 12 11 12 12 12 11 7 5 7 10 14 14 9 10 15 15 15 16 16 13 14 18 18 15 12 13 14 13 13 12 13 15 15 18 18 13 11 11 13 15 19 28 28 24 20 15 16 15 12 9 7 8 9
21 22 23 23 23 24 24 24 25 25 24 21 18 17 17 17 15 15 13 11 13 13 10 9 10 11 12 13 15 15 13 13 10 8 11 12 12 13 14 14 13 10 6 8 13 14 12 10 11 13 15 17 18 15 11 13 17 18 14 10 11 13 12 12 13 13 14 17 21 22 17 14 14 14 15 22 29 28 26 20 15 18 17 14 12 9 9 9
19 20 21 22 22 23 24 24 25 25 24 21 18 16 16 16 14 13 8 4 4 5 6 7 7 8 8 7 10 15 15 13 10 7 8 9 12 16 18 17 14 14 12 12 17 15 12 14 14 14 17 17 16 15 12 13 15 14 9 7 10 12 12 13 14 14 15 17 22 24 18 13 13 14 13 20 30 30 27 22 15 16 16 13 12 10 10 10
18 18 19 20 21 22 23 24 24 24 23 20 18 18 16 14 13 10 4 2 7 7 5 6 6 7 7 6 7 11 15 16 14 9 7 7 10 15 18 17 13 13 14 15 20 20 17 17 17 19 22 18 15 14 11 9 9 9 7 7 9 11 13 15 14 16 17 16 20 23 18 11 8 11 10 15 29 30 27 23 15 12 13 12 11 11 11 11
16 16 17 18 18 19 21 22 22 22 20 19 20 19 16 14 13 8 3 4 12 11 8 10 9 6 7 8 8 10 13 15 14 12 11 9 9 14 16 14 12 12 14 16 20 22 21 20 20 21 22 19 17 16 13 9 8 9 10 10 11 12 14 15 15 16 14 12 18 20 19 14 5 4 10 12 16 18 22 23 15 12 13 10 9 11 12 12
14 15 15 16 17 17 19 20 19 19 18 19 20 18 16 14 13 8 4 9 15 12 13 14 11 7 8 7 9 13 14 14 12 11 11 10 10 15 17 14 14 15 17 19 20 21 21 20 21 22 20 18 18 19 17 13 11 12 13 12 12 11 11 12 12 10 5 7 16 20 19 13 5 5 10 12 8 8 16 19 13 11 10 6 6 9 11 12
13 14 13 14 15 16 17 17 17 18 18 20 19 18 17 14 13 13 9 10 10 7 10 10 7 6 8 7 7 11 13 12 11 10 9 10 11 17 19 15 14 15 17 19 19 19 20 19 18 19 18 17 17 19 18 15 14 13 13 11 8 5 5 6 7 5 4 9 16 19 14 5 3 4 2 3 4 7 11 13 10 7 3 1 2 3 6 9
14 13 13 13 14 15 15 15 17 19 20 20 19 19 19 13 13 20 19 13 7 2 3 1 4 7 10 12 8 6 10 9 7 9 10 11 14 18 19 18 17 17 16 16 16 17 16 15 14 13 12 12 15 20 20 17 14 11 10 9 6 2 1 2 4 3 5 13 16 11 2 5 8 7 8 9 8 8 9 10 7 3 1 1 2 3 4 6
14 13 13 13 13 13 14 15 18 19 19 20 20 19 21 16 13 18 21 19 14 8 5 5 10 12 13 17 14 8 11 11 8 11 14 15 17 20 21 23 21 18 17 17 16 15 15 13 10 8 7 8 12 18 20 20 16 12 10 8 9 9 4 3 5 4 7 14 14 6 5 6 7 8 8 8 7 7 8 9 7 3 1 2 4 4 5 5
13 13 13 12 13 13 14 15 17 18 19 20 20 22 26 23 17 15 17 19 19 16 17 17 16 15 14 17 20 17 15 15 12 14 18 19 20 21 21 22 21 19 18 18 16 14 15 17 12 9 12 14 15 16 17 22 19 12 9 9 12 14 12 12 13 15 16 14 7 7 9 8 9 8 6 5 5 5 7 9 7 3 2 5 6 6 7 7
13 13 12 12 13 12 13 15 16 18 19 20 22 26 29 26 19 16 12 10 12 13 16 14 10 11 12 9 16 17 13 14 13 13 19 22 23 23 20 18 18 18 18 19 18 13 13 17 15 14 14 15 16 15 15 20 16 10 9 9 9 9 10 13 13 16 16 8 4 11 13 12 11 6 4 3 4 5 6 7 5 1 2 4 6 7 7 7
11 12 12 12 12 12 13 15 16 17 18 21 25 27 26 25 20 17 14 8 5 5 10 12 9 8 8 4 8 9 6 9 12 13 17 20 22 23 23 21 18 17 16 17 20 19 17 19 18 14 15 15 12 9 14 17 14 10 10 8 7 5 3 4 4 4 4 1 5 9 11 12 10 6 4 2 1 2 2 3 2 2 2 3 5 6 6 7
10 11 11 11 12 12 12 13 15 17 18 22 26 25 23 23 21 19 17 12 7 7 8 9 10 9 9 9 8 6 6 8 7 15 17 15 15 16 19 22 21 19 17 16 19 19 18 21 19 14 13 11 4 7 17 22 17 12 10 9 8 6 6 7 7 3 1 2 2 4 7 11 13 10 6 2 1 1 2 2 2 3 4 5 6 7 6 6
9 10 10 11 11 12 13 13 15 17 19 23 25 25 22 20 19 19 17 12 9 9 9 7 10 12 10 11 12 8 5 10 7 13 17 13 13 13 14 16 18 18 17 17 20 17 11 13 17 14 10 5 1 7 17 24 21 14 12 13 12 10 11 12 9 5 3 1 3 3 2 8 13 11 6 2 0 2 3 4 5 6 6 8 10 10 8 7
10 10 9 10 11 13 13 14 16 17 20 23 24 22 20 18 17 18 16 12 9 9 10 10 12 14 13 12 11 9 8 10 11 10 12 13 15 13 9 9 11 14 15 17 22 19 11 8 15 17 13 6 2 4 7 10 15 15 12 12 14 12 11 10 10 12 10 4 5 4 3 7 12 9 4 4 3 2 2 3 5 6 8 10 13 13 12 11
10 10 9 10 12 13 14 15 16 18 19 21 21 20 19 17 16 17 16 13 10 9 9 10 11 14 16 13 10 9 10 11 11 11 10 11 15 14 9 6 5 6 9 16 22 24 17 10 14 19 19 14 10 8 9 12 14 17 14 9 9 11 11 8 7 13 15 9 4 5 4 7 12 10 6 5 3 2 2 3 5 7 10 13 15 15 15 15
10 11 11 11 12 12 14 15 15 17 18 18 18 18 18 18 16 14 14 13 11 9 4 7 9 14 16 14 11 9 10 13 12 10 12 11 6 9 8 5 5 1 4 12 16 16 14 10 11 15 16 18 17 13 13 14 14 15 16 12 8 9 13 13 9 12 13 9 5 4 3 9 15 10 6 5 2 1 2 6 8 11 15 17 18 18 18 18
11 12 12 12 12 12 12 15 16 16 16 14 14 14 14 16 16 13 13 13 11 8 3 5 8 11 12 11 10 9 10 14 11 8 12 14 9 5 4 4 8 5 9 11 9 5 6 6 8 11 14 17 17 14 15 13 10 11 13 14 12 10 12 14 16 16 9 4 6 4 3 8 14 9 6 5 2 2 5 9 11 14 17 17 18 18 19 20
12 12 10 9 10 11 11 13 15 15 13 10 11 12 12 15 16 14 14 14 9 7 6 5 6 8 8 7 10 12 10 11 10 8 12 14 9 8 10 8 4 5 7 6 2 2 4 3 4 8 11 12 11 8 9 9 8 9 11 14 15 13 13 15 18 16 5 3 5 4 5 10 14 9 6 4 2 5 8 10 12 14 15 15 16 17 19 21
13 12 10 6 5 7 7 9 12 13 12 12 12 13 12 12 13 13 15 15 10 8 8 7 8 10 8 6 11 14 8 7 11 11 13 16 9 7 12 11 4 1 2 4 5 7 8 5 4 4 3 5 7 7 9 12 13 12 13 16 16 15 14 14 17 12 2 6 7 6 10 14 12 6 4 4 6 7 8 11 12 14 14 15 16 16 17 19
16 14 12 9 7 7 6 7 11 12 12 12 12 11 8 6 7 7 10 13 12 10 10 9 11 13 10 7 12 15 12 8 9 10 12 17 10 3 8 10 7 4 6 9 8 9 9 9 9 7 6 7 11 12 15 19 19 19 21 20 16 12 11 12 13 9 9 12 11 10 13 13 9 6 7 7 7 7 8 11 13 14 15 16 15 12 13 15
20 18 15 13 12 11 10 11 13 14 13 11 11 11 9 7 6 5 5 9 11 11 12 13 14 14 11 7 9 14 15 12 10 9 11 15 12 9 6 6 7 8 7 8 10 10 9 10 12 11 10 10 13 16 17 17 17 20 21 17 14 12 10 9 6 9 11 12 13 12 11 9 7 7 6 5 6 8 10 12 14 15 16 15 13 11 11 12
22 21 18 17 15 14 14 14 15 16 15 13 13 13 11 10 8 4 2 6 9 10 13 13 16 19 16 10 9 12 13 13 12 10 9 13 13 12 7 2 5 7 5 7 10 10 9 8 10 12 13 14 13 15 16 14 13 16 17 15 16 12 6 3 8 11 8 9 13 13 10 6 4 3 2 5 8 10 12 13 14 14 14 14 14 12 11 11
23 22 21 20 18 17 17 16 16 17 15 15 16 14 12 11 9 5 1 3 8 10 11 9 9 14 17 16 15 13 11 12 13 10 10 14 15 12 8 1 3 4 5 8 8 5 7 7 6 9 13 16 16 15 15 13 13 19 20 13 8 3 11 13 14 13 11 13 14 11 8 5 2 2 5 8 9 10 11 10 11 12 13 14 14 14 11 10
22 23 23 22 20 18 18 17 16 16 13 14 15 13 12 11 7 6 4 3 6 9 8 7 7 10 11 12 15 14 11 12 15 14 16 18 17 13 9 5 4 7 8 7 7 3 4 4 5 7 9 13 15 15 14 12 15 25 22 6 4 8 15 16 15 14 14 16 13 8 6 4 3 5 7 9 9 8 8 8 10 11 13 15 15 13 11 10
21 23 24 22 20 19 18 16 15 14 11 12 15 12 11 11 8 9 11 8 6 6 5 6 8 9 9 8 11 14 15 15 15 16 18 17 13 12 11 8 8 11 11 5 4 5 5 3 7 11 9 10 12 12 13 14 18 25 16 7 16 16 19 18 15 12 11 12 11 7 5 5 5 7 8 10 11 9 7 8 10 11 13 16 15 13 11 11
20 23 25 23 20 20 20 17 15 15 13 15 18 14 12 13 11 11 14 13 11 7 5 7 8 6 6 8 11 14 16 17 18 20 19 15 10 12 14 12 10 11 10 5 2 3 4 2 7 13 12 12 12 11 14 17 16 16 10 12 16 17 20 19 16 13 11 11 9 7 6 6 7 8 9 13 13 11 8 8 10 11 13 15 15 13 10 10
Wind_Direction
235 236 237 239 238 237 234 231 227 221 215 210 208 208 210 208 200 188 164 141 111 86 80 82 82 84 85 81 78 73 70 69 68 67 67 69 75 87 91 82 71 66 68 66 63 61 61 59 53 47 40 39 41 39 40 43 44 58 82 106 113 111 103 86 84 100 103 87 86 97 101 104 108 114 127 121 128 143 130 143 156 171 181 177 180 187 191 188
238 236 235 236 236 236 234 232 229 225 220 215 211 208 211 213 211 206 198 190 168 141 97 91 91 93 88 84 87 82 76 70 67 67 65 67 72 83 89 80 69 62 59 55 52 49 49 52 50 46 35 28 31 32 39 50 51 63 83 103 101 85 76 73 76 91 95 81 81 89 92 93 88 87 100 112 119 128 126 139 158 177 188 182 180 186 188 189
242 239 237 235 234 234 234 233 230 228 225 219 215 212 211 213 215 213 211 211 202 196 183 126 106 105 96 90 89 85 85 74 67 65 62 62 66 77 82 74 60 52 51 51 50 44 43 47 49 49 40 28 18 16 35 52 61 77 95 110 103 79 68 67 65 70 70 72 78 83 85 81 68 49 55 76 88 108 131 143 169 182 185 181 180 188 194 198
246 244 242 239 236 233 232 232 231 230 228 224 220 215 214 215 217 217 216 218 217 216 214 209 147 124 111 101 89 79 92 82 69 64 57 52 56 67 73 70 56 42 48 55 52 45 40 42 50 51 46 41 25 2 14 39 62 86 105 113 105 84 72 74 63 57 60 64 71 74 74 73 62 32 33 46 52 70 117 137 176 187 180 188 189 191 203 207
267 258 250 244 240 235 232 230 230 229 229 228 225 221 218 217 219 219 218 219 223 225 223 226 217 171 134 117 101 86 87 85 74 66 52 38 40 54 66 66 56 49 54 58 54 47 39 34 41 45 47 48 41 30 33 61 98 98 103 103 92 88 78 91 81 65 66 60 67 67 55 59 63 30 19 26 35 38 36 51 178 206 193 206 214 209 213 213
294 284 272 260 247 240 236 231 229 228 227 228 227 226 223 221 222 222 221 220 223 227 229 231 232 221 183 146 120 104 90 85 86 72 46 26 30 42 57 59 58 61 59 60 56 47 39 30 26 38 60 52 41 72 90 95 123 115 110 103 79 89 88 110 112 90 92 66 64 55 39 48 45 11 360 8 22 22 19 18 353 295 228 221 227 229 230 225
292 293 292 281 267 252 241 235 231 227 226 226 227 227 227 226 225 225 224 222 223 226 230 232 234 234 222 194 155 140 105 85 119 94 36 19 27 31 43 50 54 62 58 59 56 48 41 33 35 38 62 64 31 66 112 121 138 125 112 102 68 87 106 128 147 132 140 138 112 31 21 23 344 335 354 13 15 8 360 350 352 339 254 246 245 241 237 232
277 287 291 289 286 274 257 243 234 230 227 224 224 226 227 228 228 228 227 226 225 226 229 232 234 236 235 224 195 197 241 267 165 126 19 3 17 19 24 36 44 56 54 57 56 54 52 40 41 33 21 28 9 17 139 134 134 131 118 100 66 80 96 125 151 156 161 163 182 205 178 340 304 305 346 15 354 349 347 335 340 347 287 273 269 251 237 228
267 273 280 287 288 286 282 268 246 235 229 225 224 223 224 227 229 230 230 230 229 228 230 230 233 235 235 235 222 226 250 255 238 252 342 334 346 356 359 11 30 48 52 54 38 26 66 58 48 39 17 16 9 357 159 142 121 164 160 90 49 66 80 103 118 132 167 177 190 179 180 224 246 276 326 350 320 332 344 334 328 349 340 304 280 256 245 234
259 264 270 276 281 286 287 286 276 251 235 228 224 221 221 223 226 230 232 233 233 233 233 232 234 234 234 237 233 233 243 249 258 263 290 302 312 332 344 354 1 25 40 33 3 347 80 74 48 32 13 39 88 136 167 181 176 171 171 110 49 5 24 74 79 73 155 186 195 187 206 240 243 273 332 353 321 322 332 321 319 350 360 337 293 263 248 227
252 255 262 267 273 279 281 285 286 276 255 234 226 223 221 220 222 225 229 233 236 236 236 235 236 234 234 235 233 238 242 243 255 259 256 265 285 315 341 347 336 340 5 15 1 355 33 45 16 351 41 56 77 154 215 246 257 176 173 183 198 295 307 293 16 80 111 173 183 201 224 225 241 299 348 346 332 323 310 289 312 349 13 4 340 320 273 207
247 250 253 259 266 271 275 280 278 273 267 247 235 224 220 220 219 221 225 228 233 236 238 237 237 235 236 234 233 242 244 242 248 249 247 252 266 289 310 320 326 320 313 336 352 347 351 348 341 358 77 47 9 237 247 286 275 231 189 202 210 221 251 273 277 144 134 150 157 177 201 208 238 320 337 323 327 319 283 264 302 344 33 24 3 15 49 143
248 247 247 252 259 266 271 274 274 266 256 246 238 223 221 221 219 220 221 224 228 232 236 237 237 235 235 235 237 243 243 243 246 244 246 252 263 278 289 300 307 309 299 298 315 321 319 317 335 6 136 344 355 239 276 294 231 227 218 210 218 225 242 259 255 218 179 169 155 164 189 209 237 275 311 328 334 321 294 282 317 324 57 44 14 19 49 59
249 247 245 246 249 259 267 270 273 262 250 239 225 212 206 207 215 218 218 221 224 227 232 234 235 235 235 236 239 244 244 245 248 247 250 254 263 274 278 287 288 288 287 281 291 307 308 317 330 306 212 279 339 297 302 283 207 224 228 219 228 238 250 253 249 244 202 198 198 187 200 220 240 248 281 334 346 353 350 353 9 309 132 65 38 32 55 59
248 248 245 245 245 251 259 262 269 263 250 233 216 199 186 188 200 208 213 215 218 222 227 230 232 234 235 235 236 244 247 246 251 254 257 261 264 268 267 269 271 275 277 269 270 294 310 319 326 297 231 231 324 308 303 280 228 234 235 228 234 242 250 241 241 244 219 210 213 211 216 224 236 242 251 291 311 7 52 34 31 279 214 98 60 53 75 74
246 246 245 244 245 247 250 252 259 258 247 229 209 188 179 180 183 199 207 206 209 216 223 227 231 233 236 237 235 244 252 254 262 271 276 281 277 271 266 258 259 267 270 266 266 283 316 321 323 304 245 221 293 307 303 289 248 240 241 237 243 252 247 229 235 240 231 228 222 220 220 218 229 234 233 258 281 262 216 84 60 114 197 163 107 90 112 134
244 244 243 243 244 246 247 246 247 249 246 223 192 184 182 177 178 194 194 189 195 199 208 211 215 227 232 234 231 244 264 268 272 279 279 282 281 276 270 260 261 265 265 272 277 282 308 308 306 296 262 241 262 296 293 281 257 247 243 240 250 258 249 240 238 230 224 228 231 229 226 225 234 239 231 241 262 263 244 131 85 108 176 183 169 152 146 155
244 242 241 241 243 245 245 244 242 242 240 216 188 195 196 194 196 197 189 183 183 176 175 178 176 184 184 178 174 211 260 252 255 269 270 273 277 276 272 268 270 264 254 258 264 270 271 276 285 281 275 274 279 289 282 276 277 271 258 252 256 254 249 250 247 235 226 229 236 237 236 231 229 237 237 238 250 255 240 195 112 121 179 190 190 187 170 159
243 242 240 239 242 243 244 245 242 240 235 216 199 205 215 229 224 209 197 190 184 176 182 183 165 147 135 131 124 105 148 230 251 275 273 277 280 277 275 275 276 264 251 249 249 257 259 261 269 268 274 280 283 286 283 288 291 284 280 280 276 258 253 267 265 246 236 238 240 243 249 240 224 229 234 235 243 250 249 234 187 130 209 211 206 204 205 203
242 241 240 239 241 242 244 245 244 240 233 220 213 218 225 234 235 228 214 206 198 192 198 196 170 157 139 130 139 122 357 265 271 284 271 270 272 267 264 269 276 266 252 251 251 252 256 261 257 255 264 270 274 281 286 294 293 288 297 303 289 253 252 281 279 245 234 242 247 248 258 254 231 228 232 234 239 244 247 233 197 91 210 213 233 224 222 224
240 240 240 239 240 241 242 245 246 243 237 231 226 229 236 243 253 259 241 222 215 209 213 226 202 187 178 164 158 138 265 249 257 268 262 265 267 255 250 254 262 265 259 255 257 256 253 253 246 242 250 257 264 275 288 300 299 291 294 306 306 282 274 286 287 261 232 236 252 251 255 257 238 230 232 233 235 240 245 228 184 149 178 171 276 251 224 220
239 238 238 239 241 241 241 243 246 246 242 237 235 238 246 252 261 271 267 246 227 224 229 234 239 229 213 202 189 175 214 238 247 253 259 265 266 255 253 254 253 257 263 256 253 250 248 248 240 230 236 251 257 269 290 302 301 294 291 299 308 313 315 306 313 306 231 230 258 259 255 259 245 235 233 230 234 242 247 231 176 183 179 146 325 280 228 223
240 237 236 237 239 240 241 242 245 246 243 240 242 247 252 257 265 273 276 269 244 231 238 240 248 256 239 223 220 208 212 229 239 253 263 256 253 257 267 277 259 249 244 240 242 238 246 252 244 238 254 274 277 285 299 299 299 302 293 288 292 300 314 320 334 339 255 236 262 268 262 261 249 242 237 232 236 246 251 235 220 225 205 157 289 267 235 231
241 239 236 236 238 240 241 242 243 244 243 244 247 253 258 262 267 273 279 282 269 240 239 252 255 254 243 230 233 224 217 229 244 261 258 246 246 251 265 284 268 252 242 232 240 247 254 265 274 273 279 282 283 288 294 287 295 309 296 279 287 291 301 315 329 339 314 244 245 260 268 262 251 242 238 234 233 238 245 234 223 227 213 195 225 216 193 213
241 240 238 236 237 238 239 241 243 243 243 243 247 254 259 261 267 274 281 289 285 268 258 261 260 257 249 236 233 229 227 238 249 253 245 249 252 248 260 273 261 261 257 235 236 251 263 277 283 281 282 275 273 275 275 280 290 301 292 279 289 299 305 312 318 327 330 293 266 285 289 276 265 239 233 232 227 227 229 226 227 228 214 212 223 209 209 223
242 240 239 237 237 237 238 240 242 244 243 242 246 252 256 260 265 275 282 294 293 287 286 274 260 257 248 234 228 225 233 244 248 248 249 254 248 243 252 258 258 262 262 253 250 257 269 279 271 274 280 278 273 272 276 279 281 285 289 290 295 305 309 309 320 327 326 316 300 299 292 281 272 246 236 229 222 220 219 217 225 228 218 222 229 221 229 242
242 241 239 237 237 236 236 238 240 243 243 243 246 249 254 258 262 274 285 307 304 293 298 284 258 254 250 238 227 218 226 243 251 258 261 255 242 242 246 247 258 261 251 266 263 258 271 276 268 273 284 287 276 272 279 273 273 283 295 299 290 292 296 299 316 322 313 304 291 285 284 279 274 272 258 231 221 217 216 214 221 226 222 224 228 228 234 241
242 241 239 237 236 236 236 237 238 240 242 242 242 243 250 253 259 269 277 315 303 279 301 295 263 255 256 249 229 222 228 246 259 257 262 266 243 238 245 242 249 260 253 261 263 258 263 265 268 280 288 290 276 272 285 278 273 283 298 311 291 283 283 286 297 297 293 297 290 285 286 277 273 288 275 231 220 217 216 218 222 226 223 224 228 231 232 235
241 239 238 236 235 235 235 236 237 238 238 237 237 239 243 247 250 253 245 257 258 257 292 294 269 253 248 245 233 228 233 244 258 255 248 274 249 235 248 248 244 256 252 252 260 262 260 258 267 279 278 276 275 276 282 284 283 279 283 304 295 281 277 279 286 283 281 286 284 288 291 273 271 304 298 232 220 223 226 225 229 233 225 225 229 227 227 230
241 238 236 235 233 233 234 235 235 236 233 231 234 234 233 236 235 223 168 240 259 263 271 275 276 262 249 246 233 233 238 243 264 269 246 253 254 235 242 249 245 252 255 253 256 256 256 256 258 264 265 266 274 275 268 275 287 277 276 284 282 278 275 278 285 282 283 278 273 289 295 277 265 302 292 256 229 235 237 227 226 228 220 226 232 221 220 229
240 238 235 233 231 230 231 232 231 230 227 226 227 224 219 221 217 191 176 249 261 269 263 267 274 250 241 253 240 238 245 249 264 269 245 241 247 234 231 238 244 253 264 264 261 259 261 262 258 255 257 261 266 264 261 264 268 272 284 284 279 288 291 290 291 282 274 272 283 303 305 286 244 220 270 282 271 259 243 226 217 218 217 231 239 222 221 229
241 238 234 231 230 228 227 228 225 220 218 218 217 213 205 202 205 201 209 241 261 275 260 266 281 253 244 253 251 247 248 254 259 253 244 243 238 229 226 234 246 257 270 271 272 276 271 264 264 264 260 257 257 259 259 252 251 265 282 283 280 305 314 298 292 276 242 270 301 316 311 294 160 185 287 309 233 221 222 212 205 210 214 239 247 245 237 234
241 239 235 230 228 227 223 222 220 216 213 211 207 204 196 192 216 219 216 222 231 226 203 216 332 300 266 247 246 247 239 245 259 241 228 229 229 224 226 240 253 259 268 272 276 281 276 266 266 266 262 255 249 251 253 249 251 261 264 270 269 226 87 284 277 295 273 286 315 331 294 136 121 124 104 108 132 145 167 183 189 185 88 9 309 322 290 265
240 238 236 231 227 226 220 217 218 216 212 208 200 194 193 198 221 225 222 224 221 212 223 289 314 306 275 248 243 243 236 238 257 250 230 222 227 227 230 243 251 254 260 267 269 270 273 272 258 248 276 294 268 253 247 242 247 259 257 255 248 235 226 237 253 267 269 287 317 9 121 145 131 121 115 120 123 124 149 171 182 186 192 283 283 292 304 315
240 236 235 232 227 224 219 217 218 215 211 206 196 192 199 206 213 220 227 230 229 242 269 290 304 298 282 258 244 243 248 252 257 251 238 230 233 236 237 242 245 246 248 252 257 261 262 266 270 279 294 301 296 285 257 238 240 255 258 247 247 247 246 248 259 267 271 287 333 71 113 149 150 137 136 137 138 146 156 169 186 210 249 267 277 291 312 324
240 236 234 231 227 222 218 217 217 213 210 203 197 200 209 213 213 216 221 228 236 258 284 299 306 290 287 262 235 237 253 261 255 245 240 236 238 242 245 247 247 245 242 242 250 252 254 271 292 304 296 294 296 289 250 227 225 237 248 251 264 270 255 253 264 268 271 287 88 114 125 142 146 147 169 154 147 166 166 175 193 235 261 269 288 300 311 315
236 232 230 228 225 221 218 217 216 212 208 204 204 210 218 220 216 212 205 188 195 260 303 318 330 312 310 304 241 246 291 282 249 235 239 234 234 243 247 249 251 248 243 243 250 250 254 278 302 312 304 306 301 267 225 217 220 236 258 274 288 293 264 273 304 282 277 24 126 137 138 159 169 163 178 203 190 163 161 186 205 249 275 293 299 299 310 313
227 225 225 224 223 220 215 216 216 212 208 208 212 216 222 222 216 211 208 200 208 256 292 320 335 329 334 344 313 286 325 328 258 231 238 232 232 250 256 252 250 251 246 237 246 250 248 267 292 308 308 314 309 206 202 208 219 245 275 287 285 275 270 295 316 301 319 49 154 157 151 183 191 175 170 208 296 35 6 316 313 322 330 328 318 320 322 305
221 219 219 217 217 217 213 213 214 213 211 213 216 219 223 225 215 209 214 216 234 268 284 302 321 321 318 324 321 304 315 344 314 248 245 238 238 258 269 259 248 250 248 233 239 241 222 248 282 303 315 329 325 210 205 206 216 242 270 273 272 271 272 283 282 247 239 123 171 189 218 210 198 181 158 139 36 359 344 341 341 339 340 328 318 317 305 280
219 216 213 208 208 212 212 211 212 213 215 217 219 219 223 226 218 211 214 223 235 259 277 289 309 314 303 297 303 308 323 338 334 304 277 257 246 251 271 271 244 239 242 235 235 230 207 230 275 294 307 305 285 282 264 241 233 240 259 269 268 267 264 268 264 250 252 237 154 159 251 219 192 183 155 141 172 210 286 333 341 332 330 321 312 307 301 296
216 210 204 201 202 207 208 208 212 216 219 222 224 224 225 226 222 214 210 216 227 239 270 299 303 297 296 294 287 300 326 326 329 346 333 286 257 253 267 273 240 227 231 227 225 223 220 237 272 289 299 297 299 304 300 304 284 261 264 273 274 273 256 241 251 253 253 254 175 157 215 193 174 174 165 162 187 209 241 304 326 320 314 310 307 305 303 304
211 209 202 200 198 198 204 205 210 218 222 224 226 228 230 229 226 220 206 204 215 221 267 317 291 278 290 294 281 289 326 326 323 348 355 347 310 280 284 244 213 155 170 197 201 209 222 243 271 286 293 291 296 289 277 299 297 259 250 253 261 272 253 234 241 253 249 248 215 171 172 166 162 159 151 154 179 263 300 320 320 312 310 310 307 303 300 303
207 209 204 206 204 194 199 205 209 218 222 225 230 231 235 236 232 224 205 193 199 210 255 310 271 266 291 293 272 276 314 323 319 330 349 11 38 21 24 140 183 158 139 161 166 181 224 249 276 297 302 291 289 284 275 282 278 253 258 268 265 263 257 245 246 252 243 191 187 170 103 157 161 150 142 154 170 307 314 319 315 311 314 314 309 307 309 314
205 208 200 207 213 201 199 205 209 218 218 216 224 223 227 233 231 224 204 185 186 216 248 282 257 256 286 283 257 266 301 321 310 310 335 352 18 39 52 79 161 171 144 150 156 271 264 258 292 321 327 312 305 300 276 267 279 292 294 285 268 258 262 249 238 248 266 118 176 176 132 156 162 158 157 169 281 299 303 311 311 311 315 319 321 322 322 325
200 204 191 175 180 186 197 205 208 214 207 201 208 208 211 223 226 226 213 194 192 225 242 252 244 250 274 269 249 253 262 302 304 302 321 332 345 50 55 48 51 92 27 349 340 320 296 267 278 315 327 309 304 303 306 315 322 314 298 289 277 267 271 253 228 231 214 128 157 153 143 149 155 170 191 220 271 285 300 312 313 316 323 330 335 335 331 332
193 195 189 174 157 157 171 189 201 209 204 202 209 200 191 212 218 223 224 212 209 230 251 257 242 245 266 264 246 249 245 260 292 295 314 326 328 16 34 30 37 27 353 336 331 333 310 266 257 272 268 283 294 298 314 326 325 313 305 301 286 276 299 286 239 201 135 127 123 116 132 144 157 194 216 237 271 298 315 318 319 324 331 334 338 342 337 335
195 197 195 189 180 173 168 172 189 202 202 205 211 197 185 203 201 177 211 226 226 241 260 261 246 244 261 267 253 253 250 251 268 280 312 328 314 297 325 39 44 15 3 333 312 314 311 272 247 247 253 273 297 304 311 321 321 315 315 312 296 295 316 302 225 157 132 128 118 115 132 148 171 196 223 273 310 326 328 328 330 333 336 335 338 344 342 338
198 202 204 201 193 183 174 174 185 195 200 205 205 197 192 199 194 166 192 231 231 252 269 263 250 248 253 264 275 271 262 262 267 270 306 329 318 303 296 126 64 14 358 335 312 289 291 283 242 236 244 254 278 297 304 312 314 315 326 322 308 316 2 67 130 127 122 123 124 130 139 143 167 194 316 340 335 334 337 338 336 336 338 337 337 340 341 343
202 206 210 209 202 190 180 178 185 190 197 205 204 202 205 200 187 176 202 223 213 232 263 273 267 262 258 258 264 271 276 283 283 274 292 315 314 310 312 349 56 355 328 349 349 281 277 301 268 243 243 251 269 284 295 308 310 318 335 335 306 12 84 95 110 114 102 99 104 108 115 118 105 57 24 6 351 340 336 331 331 338 342 343 343 342 339 344
208 211 214 212 205 196 182 179 188 188 187 200 205 209 220 220 215 212 220 226 200 204 230 263 288 295 287 266 252 253 264 282 290 286 287 297 299 297 309 331 337 329 336 5 26 10 317 329 329 306 271 267 281 281 284 301 313 322 335 3 126 99 102 106 105 102 96 96 93 79 93 119 89 62 37 9 353 336 322 319 330 341 345 347 348 345 341 342
212 215 219 214 205 198 187 181 189 185 172 188 198 202 213 219 236 244 233 228 216 193 201 239 259 275 285 273 250 245 251 261 269 271 274 288 301 295 291 293 301 321 338 3 43 29 20 34 7 350 325 301 299 283 283 305 323 333 341 128 128 106 111 115 103 95 85 88 100 107 113 111 69 53 34 10 357 344 334 331 333 338 342 346 347 346 343 340
215 217 221 217 208 202 196 188 188 186 180 185 191 195 206 207 213 236 233 214 202 201 203 218 234 252 257 249 241 239 243 249 254 255 259 271 287 284 280 275 274 297 323 328 314 12 12 359 4 1 346 329 323 314 313 319 330 350 25 124 126 110 116 118 109 99 70 59 83 101 93 76 55 40 25 12 2 353 343 332 331 333 336 340 342 341 338 336
Height
3204 3205 3205 3206 3206 3207 3207 3208 3208 3209 3210 3211 3211 3212 3212 3212 3213 3213 3213 3213 3213 3213 3213 3213 3214 3214 3214 3214 3214 3214 3214 3214 3214 3214 3213 3213 3213 3212 3211 3210 3211 3211 3211 3210 3210 3209 3208 3208 3207 3207 3208 3209 3209 3209 3208 3208 3207 3207 3208 3208 3208 3208 3208 3207 3207 3208 3208 3207 3206 3207 3208 3208 3209 3208 3208 3208 3207 3207 3207 3206 3206 3206 3206 3206 3206 3206 3205 3206
3203 3204 3204 3205 3205 3206 3206 3207 3208 3208 3209 3210 3211 3211 3212 3212 3212 3213 3213 3213 3213 3213 3213 3214 3214 3215 3215 3215 3215 3214 3214 3214 3214 3215 3214 3215 3215 3214 3213 3211 3212 3212 3212 3212 3211 3210 3210 3209 3209 3208 3207 3208 3209 3210 3209 3208 3208 3208 3209 3209 3209 3209 3209 3209 3209 3209 3210 3209 3207 3208 3208 3209 3209 3209 3208 3208 3207 3207 3207 3206 3206 3206 3205 3205 3205 3205 3205 3205
3202 3202 3203 3203 3204 3205 3205 3206 3207 3207 3208 3209 3210 3210 3211 3212 3212 3212 3213 3213 3213 3213 3213 3214 3214 3215 3215 3215 3215 3215 3215 3215 3215 3215 3215 3216 3216 3215 3214 3213 3213 3214 3214 3213 3212 3212 3211 3211 3211 3209 3208 3209 3210 3210 3209 3209 3209 3209 3209 3209 3211 3211 3210 3210 3210 3210 3210 3210 3209 3208 3208 3208 3209 3209 3208 3208 3207 3207 3207 3206 3205 3205 3205 3204 3204 3204 3204 3204
3201 3201 3202 3202 3203 3203 3204 3205 3206 3206 3207 3208 3209 3209 3210 3211 3211 3212 3212 3213 3213 3213 3213 3214 3214 3215 3215 3216 3215 3215 3215 3216 3216 3216 3216 3216 3217 3216 3215 3214 3214 3215 3215 3214 3213 3213 3212 3212 3211 3211 3211 3211 3212 3210 3210 3211 3211 3211 3210 3211 3212 3212 3211 3211 3211 3210 3210 3210 3209 3209 3208 3208 3208 3208 3207 3207 3207 3207 3206 3205 3205 3205 3204 3204 3203 3203 3203 3203
3200 3200 3201 3201 3201 3202 3203 3204 3204 3205 3206 3207 3207 3208 3209 3210 3210 3211 3211 3212 3212 3213 3213 3213 3214 3214 3215 3215 3216 3215 3215 3216 3216 3216 3216 3217 3217 3216 3215 3215 3215 3216 3216 3215 3214 3213 3213 3212 3212 3212 3213 3214 3214 3213 3213 3213 3213 3212 3212 3212 3213 3212 3211 3211 3210 3210 3209 3209 3209 3209 3209 3208 3208 3207 3207 3207 3207 3207 3206 3205 3205 3205 3204 3204 3203 3203 3203 3203
3200 3200 3200 3200 3200 3201 3201 3202 3203 3204 3205 3205 3206 3207 3208 3208 3209 3210 3211 3211 3212 3212 3212 3213 3213 3214 3214 3215 3215 3215 3216 3216 3216 3216 3216 3217 3217 3217 3216 3216 3216 3216 3216 3215 3214 3214 3214 3214 3214 3214 3214 3216 3217 3217 3216 3216 3215 3214 3214 3214 3213 3212 3211 3210 3209 3209 3208 3209 3208 3208 3209 3209 3208 3207 3207 3207 3207 3206 3206 3205 3205 3204 3204 3204 3203 3202 3202 3203
3199 3199 3199 3199 3200 3200 3200 3201 3202 3202 3203 3204 3205 3206 3206 3207 3208 3209 3209 3210 3211 3211 3212 3212 3213 3213 3214 3215 3215 3215 3215 3216 3216 3216 3216 3216 3217 3217 3217 3217 3217 3217 3217 3216 3215 3214 3215 3215 3215 3215 3216 3217 3218 3218 3218 3217 3217 3216 3216 3215 3214 3213 3211 3210 3210 3210 3209 3209 3209 3209 3209 3210 3209 3208 3208 3207 3206 3206 3206 3205 3205 3204 3203 3203 3202 3202 3202 3203
3199 3199 3199 3199 3199 3199 3199 3200 3200 3201 3202 3202 3203 3204 3205 3206 3206 3207 3208 3209 3210 3210 3211 3211 3212 3212 3213 3214 3214 3215 3215 3215 3215 3215 3215 3216 3217 3217 3217 3217 3217 3217 3217 3217 3216 3215 3214 3214 3214 3215 3217 3217 3217 3218 3218 3217 3217 3216 3216 3215 3214 3214 3213 3213 3213 3212 3212 3211 3211 3210 3210 3210 3209 3208 3208 3207 3207 3206 3206 3205 3204 3203 3203 3203 3202 3202 3203 3203
3198 3198 3198 3198 3198 3198 3199 3199 3199 3200 3200 3201 3202 3202 3203 3204 3205 3206 3206 3207 3208 3209 3209 3210 3211 3211 3212 3213 3214 3214 3214 3214 3215 3215 3215 3215 3216 3217 3217 3217 3217 3217 3217 3217 3217 3216 3215 3213 3213 3215 3217 3218 3217 3216 3217 3216 3216 3215 3214 3213 3213 3213 3213 3214 3214 3214 3214 3213 3212 3211 3210 3210 3209 3208 3207 3207 3206 3206 3206 3205 3204 3203 3203 3202 3202 3202 3203 3203
3198 3198 3198 3198 3198 3198 3198 3198 3198 3198 3199 3199 3200 3201 3202 3203 3203 3204 3205 3205 3206 3207 3208 3209 3210 3210 3211 3212 3213 3213 3214 3214 3214 3214 3215 3215 3216 3216 3216 3217 3217 3218 3218 3218 3217 3217 3216 3213 3213 3216 3217 3218 3217 3215 3216 3216 3214 3212 3212 3211 3211 3212 3212 3213 3213 3214 3214 3213 3213 3212 3210 3210 3209 3208 3207 3206 3206 3206 3205 3204 3203 3203 3203 3202 3202 3202 3202 3202
3197 3197 3197 3197 3197 3197 3197 3197 3198 3198 3198 3198 3199 3199 3200 3201 3202 3202 3203 3204 3204 3205 3206 3207 3208 3209 3210 3210 3211 3212 3213 3213 3214 3214 3214 3215 3215 3215 3216 3216 3217 3217 3218 3218 3217 3217 3216 3215 3214 3216 3217 3217 3217 3216 3216 3215 3214 3213 3212 3212 3212 3211 3211 3211 3212 3212 3213 3212 3213 3212 3211 3210 3208 3207 3206 3206 3205 3205 3204 3204 3203 3203 3202 3202 3201 3202 3202 3202
3197 3197 3197 3197 3197 3197 3197 3197 3197 3197 3197 3197 3197 3198 3199 3199 3200 3201 3201 3202 3203 3203 3204 3205 3206 3207 3208 3209 3210 3210 3211 3212 3212 3213 3214 3214 3214 3215 3215 3216 3216 3217 3217 3218 3218 3217 3217 3216 3215 3215 3215 3216 3217 3216 3215 3214 3215 3215 3214 3213 3213 3212 3211 3210 3211 3212 3211 3211 3211 3211 3211 3209 3207 3206 3205 3205 3204 3204 3204 3203 3202 3202 3202 3201 3200 3200 3201 3201
3196 3197 3197 3197 3197 3196 3196 3196 3196 3196 3196 3197 3197 3197 3197 3198 3198 3199 3200 3200 3201 3202 3202 3203 3204 3205 3206 3207 3208 3208 3209 3211 3211 3211 3212 3213 3214 3214 3214 3215 3216 3216 3216 3217 3217 3217 3217 3216 3215 3214 3214 3215 3216 3215 3214 3214 3215 3215 3214 3214 3213 3212 3211 3210 3210 3211 3211 3210 3209 3209 3208 3206 3205 3205 3204 3204 3204 3203 3203 3203 3202 3201 3201 3200 3200 3199 3199 3200
3196 3196 3196 3196 3196 3196 3196 3196 3196 3196 3196 3196 3196 3196 3196 3197 3197 3198 3198 3199 3199 3200 3201 3201 3202 3204 3204 3206 3207 3206 3207 3208 3208 3210 3212 3213 3213 3213 3214 3214 3215 3215 3215 3216 3216 3216 3216 3215 3214 3213 3213 3214 3214 3214 3213 3214 3215 3215 3215 3214 3213 3212 3210 3209 3210 3210 3210 3209 3208 3207 3205 3204 3203 3203 3203 3204 3203 3202 3202 3202 3202 3201 3200 3200 3199 3199 3198 3198
3195 3195 3196 3196 3196 3196 3195 3195 3195 3195 3195 3196 3196 3196 3196 3196 3196 3196 3197 3197 3198 3198 3199 3200 3201 3202 3203 3205 3205 3204 3205 3206 3207 3209 3211 3212 3212 3213 3213 3213 3214 3214 3214 3214 3215 3215 3215 3214 3213 3212 3212 3212 3213 3213 3213 3213 3214 3214 3213 3212 3211 3210 3210 3210 3209 3208 3208 3208 3206 3205 3203 3202 3201 3202 3203 3203 3203 3202 3201 3201 3201 3200 3199 3199 3199 3198 3198 3198
3194 3194 3195 3195 3195 3195 3195 3195 3195 3195 3195 3195 3195 3195 3195 3195 3196 3196 3196 3196 3197 3197 3198 3199 3200 3201 3202 3203 3204 3203 3203 3204 3206 3208 3209 3209 3210 3211 3212 3212 3212 3213 3213 3213 3213 3213 3213 3213 3212 3211 3210 3211 3211 3212 3212 3212 3212 3212 3211 3210 3209 3209 3209 3209 3208 3207 3207 3206 3204 3203 3202 3200 3199 3200 3201 3201 3201 3201 3200 3200 3200 3199 3198 3198 3198 3198 3197 3197
3192 3193 3194 3194 3195 3195 3195 3194 3195 3194 3194 3195 3195 3195 3195 3195 3195 3195 3196 3196 3196 3196 3197 3198 3198 3200 3200 3201 3203 3203 3202 3203 3205 3206 3206 3207 3208 3208 3209 3210 3210 3211 3211 3211 3211 3212 3212 3212 3212 3211 3209 3209 3210 3210 3211 3210 3210 3210 3209 3209 3208 3208 3208 3207 3206 3205 3205 3204 3202 3202 3200 3199 3198 3198 3198 3198 3198 3199 3199 3198 3198 3198 3197 3197 3197 3197 3197 3197
3191 3192 3193 3193 3194 3194 3194 3194 3194 3194 3194 3194 3195 3195 3195 3195 3195 3195 3195 3195 3196 3196 3196 3197 3197 3198 3199 3200 3201 3202 3202 3203 3204 3204 3205 3205 3205 3206 3207 3207 3208 3209 3210 3210 3210 3211 3211 3211 3211 3209 3208 3208 3208 3209 3209 3208 3208 3209 3207 3207 3206 3206 3206 3205 3204 3204 3203 3201 3200 3201 3199 3198 3198 3197 3196 3197 3196 3197 3197 3197 3196 3196 3196 3196 3196 3196 3196 3196
3189 3190 3191 3192 3193 3193 3193 3193 3193 3193 3193 3194 3195 3195 3195 3195 3195 3195 3195 3195 3195 3195 3196 3196 3196 3197 3197 3198 3199 3201 3202 3203 3204 3204 3204 3204 3204 3204 3205 3205 3206 3207 3208 3209 3209 3210 3210 3210 3209 3207 3206 3206 3206 3207 3207 3206 3207 3207 3206 3205 3204 3204 3203 3202 3201 3202 3201 3199 3198 3198 3196 3196 3198 3197 3194 3195 3195 3195 3196 3196 3196 3196 3195 3195 3195 3196 3195 3195
3187 3188 3189 3190 3191 3191 3192 3192 3192 3193 3193 3194 3194 3194 3194 3194 3194 3194 3195 3195 3195 3195 3195 3196 3196 3196 3196 3197 3197 3199 3201 3202 3203 3203 3204 3203 3203 3203 3204 3204 3205 3205 3206 3207 3208 3209 3209 3209 3208 3206 3205 3205 3204 3204 3204 3204 3205 3205 3204 3203 3202 3202 3201 3199 3199 3199 3200 3198 3196 3196 3195 3195 3198 3197 3194 3193 3194 3194 3195 3195 3196 3195 3194 3194 3194 3194 3194 3194
3184 3186 3187 3188 3189 3190 3190 3191 3191 3192 3193 3193 3194 3194 3194 3194 3194 3194 3194 3194 3195 3195 3195 3196 3196 3196 3196 3196 3196 3196 3199 3201 3201 3202 3203 3203 3203 3202 3202 3203 3203 3204 3204 3205 3206 3207 3208 3207 3206 3205 3204 3204 3203 3202 3202 3202 3203 3203 3204 3202 3200 3200 3199 3197 3197 3197 3198 3196 3193 3193 3194 3194 3196 3197 3195 3193 3193 3194 3194 3194 3195 3195 3193 3193 3193 3193 3193 3193
3182 3183 3185 3186 3187 3188 3189 3189 3190 3191 3191 3192 3193 3193 3193 3193 3193 3193 3194 3194 3194 3194 3195 3195 3195 3195 3196 3196 3196 3196 3197 3199 3200 3201 3201 3202 3201 3201 3201 3202 3202 3202 3203 3204 3204 3205 3205 3204 3204 3204 3204 3203 3203 3202 3202 3202 3201 3201 3201 3200 3199 3199 3197 3196 3196 3196 3196 3195 3192 3192 3192 3191 3193 3195 3195 3194 3192 3193 3194 3193 3194 3193 3192 3191 3191 3191 3191 3191
3179 3181 3182 3184 3185 3186 3187 3188 3188 3189 3190 3191 3192 3192 3192 3193 3192 3193 3193 3193 3193 3193 3194 3194 3194 3194 3195 3196 3196 3195 3196 3197 3198 3199 3200 3200 3200 3200 3200 3201 3201 3201 3201 3202 3202 3203 3203 3202 3202 3203 3203 3203 3202 3202 3202 3201 3199 3199 3198 3198 3198 3198 3197 3196 3195 3194 3194 3193 3191 3191 3191 3189 3190 3191 3192 3193 3192 3193 3194 3193 3193 3192 3190 3190 3190 3189 3189 3189
3176 3178 3180 3181 3182 3183 3184 3186 3186 3186 3188 3190 3191 3191 3191 3192 3192 3192 3192 3191 3191 3192 3193 3193 3193 3192 3193 3194 3195 3195 3195 3196 3196 3197 3198 3198 3198 3199 3199 3200 3200 3199 3200 3200 3201 3201 3201 3200 3201 3202 3202 3202 3201 3201 3201 3199 3198 3198 3197 3197 3197 3197 3197 3195 3195 3193 3192 3192 3192 3192 3190 3187 3186 3187 3188 3190 3191 3193 3193 3193 3192 3190 3189 3190 3189 3188 3188 3187
3174 3175 3177 3178 3180 3181 3182 3183 3183 3184 3187 3189 3190 3190 3190 3190 3191 3191 3191 3191 3189 3190 3191 3191 3190 3190 3191 3192 3193 3194 3195 3194 3194 3196 3196 3196 3197 3197 3198 3199 3199 3198 3198 3199 3200 3200 3199 3199 3199 3200 3200 3200 3199 3199 3200 3199 3197 3197 3196 3196 3196 3195 3195 3194 3193 3193 3192 3192 3191 3191 3189 3185 3184 3184 3185 3187 3188 3189 3191 3191 3190 3188 3188 3188 3188 3187 3186 3186
3171 3172 3174 3176 3177 3178 3180 3180 3181 3183 3185 3188 3189 3189 3189 3189 3190 3190 3190 3190 3188 3187 3188 3188 3187 3188 3188 3189 3190 3192 3193 3192 3193 3194 3195 3195 3196 3196 3197 3197 3197 3197 3198 3198 3199 3198 3197 3197 3198 3198 3197 3198 3198 3197 3197 3197 3196 3195 3195 3195 3195 3194 3193 3192 3192 3191 3191 3190 3189 3189 3187 3183 3182 3182 3183 3184 3185 3186 3188 3188 3187 3186 3186 3186 3186 3185 3185 3184
3169 3170 3171 3173 3175 3176 3177 3178 3179 3181 3183 3186 3187 3187 3187 3188 3189 3189 3190 3190 3187 3186 3185 3185 3185 3185 3186 3187 3189 3191 3191 3190 3191 3193 3193 3193 3194 3195 3195 3195 3196 3196 3197 3198 3197 3196 3195 3195 3196 3196 3196 3196 3195 3195 3195 3196 3195 3194 3194 3194 3193 3192 3191 3191 3191 3191 3190 3188 3185 3186 3186 3183 3180 3180 3181 3182 3183 3185 3186 3186 3185 3184 3185 3185 3185 3184 3183 3183
3166 3167 3169 3170 3172 3173 3174 3175 3177 3179 3182 3184 3184 3185 3186 3187 3188 3189 3190 3191 3187 3184 3184 3183 3183 3184 3185 3186 3187 3188 3189 3189 3191 3191 3191 3192 3193 3193 3193 3194 3195 3195 3196 3196 3194 3193 3194 3193 3193 3194 3194 3194 3193 3193 3194 3194 3194 3193 3192 3192 3191 3191 3190 3190 3190 3190 3189 3187 3183 3182 3184 3183 3180 3179 3180 3181 3182 3183 3183 3183 3183 3183 3183 3183 3183 3183 3182 3182
3164 3165 3167 3168 3169 3170 3171 3173 3175 3177 3179 3181 3181 3183 3185 3186 3187 3188 3190 3190 3185 3182 3183 3183 3183 3184 3184 3185 3186 3187 3188 3188 3189 3190 3190 3191 3191 3192 3191 3192 3194 3194 3195 3195 3192 3192 3192 3191 3192 3192 3191 3191 3191 3192 3192 3192 3191 3191 3190 3190 3190 3189 3190 3189 3189 3188 3187 3186 3182 3179 3181 3182 3179 3178 3179 3179 3180 3180 3179 3180 3181 3181 3181 3182 3181 3181 3181 3181
3162 3163 3164 3166 3167 3168 3169 3171 3172 3175 3177 3178 3179 3181 3183 3185 3186 3188 3190 3188 3183 3182 3183 3182 3182 3184 3184 3184 3185 3185 3186 3187 3187 3188 3189 3189 3190 3190 3191 3191 3193 3193 3193 3193 3191 3190 3190 3190 3190 3189 3188 3189 3190 3190 3190 3190 3190 3189 3189 3189 3189 3188 3189 3188 3187 3187 3186 3184 3180 3178 3179 3180 3179 3178 3177 3177 3177 3176 3176 3178 3179 3179 3180 3180 3179 3180 3180 3181
3161 3162 3163 3164 3165 3166 3167 3169 3170 3172 3174 3176 3177 3179 3182 3183 3185 3187 3187 3185 3182 3181 3181 3181 3182 3183 3183 3184 3184 3184 3185 3185 3186 3186 3187 3188 3189 3189 3190 3190 3191 3191 3191 3190 3189 3188 3189 3188 3187 3187 3187 3188 3189 3188 3188 3189 3189 3189 3188 3188 3188 3188 3187 3187 3185 3185 3185 3182 3179 3178 3178 3178 3178 3177 3176 3175 3175 3175 3176 3177 3178 3178 3178 3178 3177 3178 3179 3180
3159 3160 3161 3162 3163 3164 3165 3167 3168 3170 3171 3172 3175 3177 3180 3182 3183 3182 3182 3183 3182 3180 3179 3180 3181 3182 3183 3183 3182 3183 3183 3184 3184 3184 3185 3187 3187 3187 3188 3189 3189 3189 3189 3188 3188 3187 3186 3185 3184 3184 3185 3186 3187 3186 3186 3187 3187 3188 3187 3187 3187 3187 3188 3188 3185 3184 3184 3180 3178 3177 3176 3177 3178 3176 3175 3175 3175 3176 3176 3177 3178 3178 3177 3176 3176 3177 3178 3179
3158 3159 3160 3161 3161 3162 3164 3165 3166 3167 3168 3170 3173 3176 3178 3180 3178 3177 3179 3182 3181 3178 3178 3180 3181 3182 3183 3182 3181 3181 3182 3182 3182 3183 3184 3185 3184 3185 3186 3186 3187 3187 3187 3186 3186 3186 3183 3182 3181 3182 3182 3183 3185 3184 3184 3184 3185 3186 3185 3186 3186 3187 3190 3190 3186 3184 3182 3178 3176 3177 3176 3177 3178 3176 3176 3175 3175 3176 3176 3176 3177 3176 3176 3175 3175 3176 3177 3177
3156 3157 3158 3159 3160 3161 3162 3163 3163 3165 3167 3169 3172 3174 3176 3176 3174 3174 3178 3179 3179 3178 3178 3180 3180 3181 3181 3180 3179 3180 3180 3180 3181 3182 3183 3184 3183 3183 3184 3184 3185 3186 3185 3185 3185 3185 3183 3181 3179 3180 3181 3182 3182 3182 3181 3183 3184 3184 3184 3185 3185 3185 3187 3188 3185 3183 3180 3177 3177 3177 3177 3179 3179 3178 3177 3176 3176 3175 3175 3175 3176 3176 3175 3175 3175 3176 3176 3177
3155 3156 3157 3158 3159 3159 3161 3161 3162 3164 3166 3167 3170 3172 3171 3171 3171 3174 3176 3177 3178 3177 3177 3178 3179 3178 3177 3177 3177 3179 3179 3179 3179 3180 3181 3182 3181 3181 3181 3181 3182 3183 3184 3184 3183 3183 3182 3179 3177 3179 3180 3180 3180 3179 3180 3182 3182 3182 3183 3183 3183 3182 3184 3183 3182 3181 3179 3177 3178 3178 3178 3180 3179 3178 3177 3176 3175 3175 3174 3175 3175 3175 3175 3176 3176 3176 3176 3177
3153 3154 3155 3156 3157 3158 3159 3160 3161 3162 3164 3166 3168 3167 3167 3168 3171 3173 3175 3176 3177 3177 3176 3176 3177 3176 3176 3175 3175 3178 3179 3178 3178 3179 3178 3179 3178 3178 3178 3178 3179 3181 3181 3182 3181 3181 3180 3177 3176 3178 3177 3178 3178 3176 3178 3180 3180 3181 3181 3180 3180 3180 3181 3181 3180 3179 3178 3179 3181 3180 3180 3180 3179 3178 3177 3176 3176 3175 3175 3175 3175 3175 3176 3176 3176 3176 3176 3176
3152 3153 3154 3155 3156 3157 3158 3159 3160 3161 3163 3165 3165 3164 3165 3167 3170 3172 3174 3175 3176 3177 3177 3176 3175 3175 3175 3175 3175 3176 3177 3177 3177 3177 3176 3176 3176 3176 3176 3176 3177 3178 3178 3179 3179 3179 3179 3176 3174 3176 3176 3175 3174 3173 3175 3176 3178 3178 3178 3179 3179 3179 3179 3179 3179 3179 3177 3180 3183 3182 3180 3180 3179 3177 3177 3176 3176 3176 3176 3176 3176 3176 3176 3176 3176 3175 3174 3174
3150 3151 3152 3153 3154 3156 3157 3158 3159 3160 3161 3163 3162 3163 3165 3166 3169 3171 3172 3174 3175 3176 3176 3176 3175 3174 3173 3173 3173 3174 3176 3176 3176 3175 3174 3174 3174 3173 3173 3173 3174 3175 3176 3178 3177 3177 3179 3176 3173 3174 3175 3174 3173 3173 3173 3174 3176 3177 3177 3177 3178 3178 3177 3177 3178 3178 3178 3181 3183 3182 3180 3179 3177 3176 3176 3176 3176 3176 3176 3176 3176 3176 3175 3175 3175 3174 3173 3172
3149 3150 3151 3152 3153 3154 3155 3156 3158 3159 3160 3160 3161 3162 3164 3165 3168 3170 3172 3173 3174 3174 3174 3175 3175 3173 3173 3173 3173 3173 3175 3175 3175 3175 3174 3174 3173 3171 3171 3171 3172 3172 3173 3176 3175 3176 3178 3177 3173 3173 3175 3175 3174 3174 3174 3175 3176 3176 3177 3177 3176 3176 3176 3176 3177 3176 3176 3179 3182 3182 3180 3177 3176 3176 3177 3177 3177 3176 3176 3175 3175 3174 3174 3173 3173 3171 3170 3169
3147 3149 3150 3151 3152 3153 3154 3155 3156 3157 3158 3158 3160 3162 3163 3164 3167 3169 3171 3172 3172 3173 3173 3174 3174 3173 3173 3173 3173 3173 3174 3173 3174 3174 3173 3173 3171 3170 3170 3170 3170 3171 3172 3173 3174 3175 3177 3177 3174 3172 3173 3175 3175 3175 3175 3176 3176 3176 3176 3176 3175 3175 3175 3175 3175 3174 3174 3175 3177 3180 3179 3176 3175 3177 3177 3177 3176 3176 3175 3174 3174 3173 3173 3172 3170 3168 3167 3166
3146 3148 3149 3150 3150 3151 3153 3154 3155 3156 3156 3158 3160 3161 3163 3164 3165 3167 3169 3171 3171 3172 3172 3173 3173 3172 3172 3173 3173 3173 3173 3172 3172 3172 3171 3171 3171 3170 3170 3170 3170 3170 3170 3171 3173 3175 3176 3176 3174 3172 3172 3173 3174 3175 3175 3176 3176 3175 3175 3174 3174 3174 3175 3175 3174 3172 3172 3172 3173 3175 3175 3174 3175 3177 3176 3176 3175 3175 3174 3174 3173 3172 3172 3171 3168 3166 3165 3165
3145 3147 3148 3148 3149 3150 3152 3153 3154 3155 3155 3157 3159 3160 3162 3163 3164 3166 3168 3169 3170 3171 3172 3173 3172 3172 3172 3172 3173 3173 3172 3171 3171 3171 3170 3170 3170 3170 3170 3170 3171 3170 3169 3170 3173 3175 3175 3175 3174 3173 3172 3172 3172 3174 3174 3174 3174 3173 3173 3173 3173 3173 3173 3173 3172 3171 3170 3171 3171 3171 3172 3173 3175 3176 3176 3176 3175 3175 3174 3173 3173 3172 3172 3171 3168 3165 3163 3165
3144 3145 3147 3147 3147 3149 3151 3152 3153 3154 3155 3157 3159 3160 3162 3162 3163 3165 3166 3168 3169 3169 3170 3171 3171 3171 3170 3170 3171 3172 3172 3171 3170 3171 3170 3169 3169 3170 3170 3171 3171 3169 3169 3170 3173 3174 3174 3174 3173 3173 3172 3170 3170 3172 3173 3173 3172 3171 3171 3171 3171 3171 3170 3170 3170 3169 3169 3169 3169 3170 3172 3174 3175 3176 3176 3175 3174 3174 3174 3173 3173 3172 3171 3170 3168 3165 3163 3164
3143 3144 3146 3147 3147 3148 3150 3151 3152 3153 3154 3156 3157 3158 3160 3161 3162 3163 3165 3166 3166 3167 3168 3169 3169 3169 3169 3169 3170 3171 3171 3171 3170 3170 3170 3168 3168 3169 3168 3169 3170 3169 3169 3171 3172 3172 3172 3172 3172 3172 3172 3171 3170 3171 3172 3172 3171 3170 3170 3170 3169 3169 3168 3168 3168 3168 3168 3168 3168 3169 3172 3174 3175 3175 3175 3174 3173 3174 3174 3173 3172 3171 3170 3169 3168 3166 3163 3162
3142 3143 3144 3146 3146 3147 3149 3150 3152 3153 3153 3154 3155 3156 3158 3159 3161 3162 3164 3164 3165 3165 3166 3167 3167 3167 3168 3168 3169 3169 3171 3171 3170 3170 3169 3168 3168 3168 3167 3167 3169 3169 3170 3170 3171 3171 3172 3171 3172 3172 3173 3174 3173 3172 3172 3172 3170 3170 3169 3168 3167 3167 3167 3166 3166 3167 3167 3167 3168 3168 3170 3172 3174 3174 3174 3173 3173 3174 3173 3172 3171 3170 3169 3168 3167 3166 3163 3160
3141 3141 3142 3143 3145 3146 3148 3149 3151 3152 3153 3154 3154 3156 3157 3158 3160 3161 3162 3163 3164 3165 3165 3165 3166 3166 3167 3168 3167 3167 3169 3170 3169 3169 3169 3168 3168 3168 3168 3167 3168 3169 3170 3170 3170 3170 3171 3170 3171 3172 3172 3173 3173 3172 3172 3172 3171 3169 3168 3166 3166 3166 3165 3164 3164 3165 3166 3167 3169 3170 3171 3172 3174 3174 3174 3173 3173 3173 3172 3171 3170 3169 3168 3167 3167 3167 3164 3160
3138 3139 3141 3143 3144 3145 3145 3147 3149 3150 3152 3153 3154 3155 3156 3157 3159 3160 3161 3162 3164 3164 3164 3164 3165 3165 3167 3167 3167 3166 3167 3168 3168 3168 3169 3169 3168 3168 3168 3168 3168 3169 3169 3169 3169 3170 3169 3169 3169 3170 3171 3171 3171 3171 3171 3172 3171 3169 3166 3164 3164 3164 3163 3162 3162 3163 3165 3167 3169 3171 3172 3173 3174 3174 3174 3173 3172 3172 3171 3170 3169 3168 3167 3167 3167 3167 3165 3160
3137 3138 3140 3141 3142 3143 3144 3145 3146 3148 3150 3151 3152 3154 3155 3156 3158 3158 3159 3161 3162 3163 3163 3164 3164 3164 3166 3167 3167 3165 3165 3166 3166 3167 3168 3168 3167 3166 3167 3167 3167 3167 3167 3168 3169 3169 3169 3168 3168 3169 3170 3170 3170 3170 3170 3170 3169 3168 3166 3164 3163 3162 3161 3161 3162 3164 3165 3166 3167 3169 3170 3172 3172 3172 3172 3172 3171 3170 3169 3168 3168 3167 3167 3166 3166 3166 3165 3162
3136 3137 3138 3139 3141 3142 3143 3144 3145 3146 3148 3150 3151 3153 3154 3155 3156 3157 3158 3159 3160 3161 3163 3163 3164 3164 3164 3165 3166 3165 3165 3165 3165 3166 3166 3166 3166 3165 3165 3165 3165 3166 3167 3168 3168 3168 3168 3168 3168 3168 3169 3169 3169 3169 3169 3169 3167 3166 3166 3165 3163 3161 3161 3162 3164 3165 3166 3165 3166 3168 3168 3170 3170 3171 3171 3171 3170 3169 3169 3168 3167 3166 3166 3166 3165 3164 3164 3163
3136 3137 3137 3137 3139 3141 3142 3143 3144 3145 3148 3150 3151 3152 3153 3154 3155 3156 3156 3157 3157 3159 3161 3162 3163 3163 3163 3164 3164 3165 3165 3164 3164 3165 3165 3164 3164 3164 3165 3165 3164 3165 3167 3167 3168 3168 3168 3168 3168 3168 3168 3168 3168 3168 3168 3168 3167 3165 3165 3165 3163 3161 3161 3162 3164 3165 3165 3166 3167 3167 3167 3168 3169 3170 3170 3170 3170 3169 3169 3168 3167 3166 3166 3165 3164 3163 3163 3163
3135 3136 3136 3137 3139 3141 3142 3143 3144 3146 3148 3148 3148 3150 3151 3152 3153 3152 3153 3155 3156 3157 3158 3159 3160 3160 3160 3161 3162 3162 3162 3162 3162 3162 3162 3163 3163 3164 3164 3165 3164 3165 3167 3168 3168 3168 3168 3168 3168 3168 3168 3167 3167 3168 3167 3167 3166 3164 3164 3164 3163 3161 3161 3163 3163 3164 3165 3165 3167 3167 3168 3168 3169 3170 3170 3170 3170 3169 3168 3167 3167 3166 3166 3165 3164 3164 3163 3163
3133 3133 3134 3137 3139 3140 3141 3142 3143 3145 3145 3144 3144 3146 3146 3147 3149 3149 3149 3151 3154 3156 3157 3157 3157 3157 3157 3158 3158 3158 3158 3158 3159 3159 3159 3161 3162 3163 3163 3164 3164 3164 3166 3168 3168 3168 3168 3168 3168 3168 3168 3167 3167 3167 3166 3166 3166 3165 3165 3165 3163 3161 3161 3163 3164 3165 3165 3165 3166 3167 3167 3168 3169 3170 3170 3170 3169 3168 3167 3166 3166 3166 3165 3165 3164 3164 3163 3163